CAPE
0 0 0 0 0 0 0 2 1 1 0 0 0 0 2 5 6 6 2 1 3 4
0 0 0 0 0 0 0 0 0 0 1 2 4 3 4 3 3 3 2 2 2 2
0 0 0 0 0 0 0 0 0 3 1 1 1 2 2 1 2 2 1 2 1 2
0 0 0 0 0 0 0 0 1 1 2 1 1 1 1 1 1 2 2 2 2 1
0 0 0 0 0 0 0 0 0 1 1 2 2 2 2 2 2 2 2 1 0 1
0 0 0 0 0 0 0 0 0 0 1 1 1 1 2 1 0 1 2 0 1 1
0 0 0 0 0 0 0 0 0 0 1 1 1 2 1 1 3 1 1 1 0 0
0 0 1 2 0 0 0 0 0 0 0 0 1 1 1 1 2 1 1 1 2 1
0 0 6 0 0 0 0 0 0 0 0 0 0 0 0 0 1 1 1 1 1 2
0 0 0 0 0 0 0 0 0 0 0 0 0 0 0 0 0 0 0 1 0 1
0 0 0 0 0 0 0 0 0 0 0 0 0 0 0 0 0 0 0 0 0 0
0 0 0 0 0 0 0 0 0 0 0 0 0 0 0 0 0 0 0 0 0 0
0 0 0 0 0 0 0 0 0 0 0 0 0 0 0 0 0 0 0 0 0 0
0 0 0 0 0 0 0 0 0 0 0 0 0 0 0 0 0 0 0 0 0 0
CIN
0 0 0 0 0 -1 0 -3 -3 -3 0 0 0 0 0 0 0 0 0 0 0 0
0 0 0 0 0 -7 0 0 0 0 -1 0 0 0 0 0 0 0 0 0 0 0
0 0 0 0 0 0 0 0 0 0 0 0 0 0 0 0 0 0 0 0 0 0
0 0 0 0 0 0 0 0 0 0 0 0 0 0 0 0 0 0 0 0 0 0
0 0 0 0 0 0 0 0 0 0 0 0 0 0 0 0 0 0 0 0 0 0
0 0 0 0 0 0 0 0 0 0 0 0 0 0 0 0 0 0 0 0 0 0
0 0 0 -4 0 0 0 0 0 0 0 0 0 0 0 0 0 0 0 0 0 0
0 0 -25 -13 0 0 0 0 0 0 0 0 0 0 0 0 0 0 0 0 0 0
0 -2 -10 0 0 0 0 0 0 0 0 0 0 0 0 0 0 0 0 0 0 0
0 0 0 0 0 0 0 0 0 0 0 0 0 0 0 0 0 0 0 0 0 0
0 0 0 0 0 0 0 0 0 0 0 0 0 0 0 0 0 0 0 0 0 0
0 0 0 0 0 0 0 0 0 0 0 0 0 0 0 0 0 0 0 0 0 0
0 0 0 0 0 0 0 0 0 0 0 0 0 0 0 0 0 0 -10 0 0 0
0 0 0 0 0 0 0 0 0 0 0 0 0 0 0 0 0 0 0 0 0 0
Wind_Speed
40 41 43 45 44 44 44 43 42 43 42 41 41 41 39 37 34 31 30 28 26 24
42 43 43 42 41 40 40 41 41 38 34 32 30 32 33 32 31 30 27 25 21 18
41 39 39 39 39 39 39 36 35 37 35 35 34 33 33 32 29 29 28 22 18 15
38 37 38 38 38 38 37 38 36 36 34 32 33 31 30 30 30 24 17 14 10 6
35 36 37 38 38 37 38 36 36 35 33 28 24 27 28 20 15 10 7 5 3 5
34 35 36 35 36 35 35 36 38 38 36 32 30 20 17 14 12 7 12 2 4 7
33 33 32 31 32 35 35 34 38 36 35 36 17 21 15 12 7 9 16 14 8 7
32 31 30 29 28 31 32 32 34 38 29 12 24 10 13 8 8 11 16 16 13 10
31 31 31 30 30 32 25 24 34 37 27 21 15 18 13 11 9 9 13 15 15 13
30 31 32 33 34 34 33 13 8 28 32 36 27 19 15 9 12 7 12 13 14 20
30 31 31 34 31 33 28 23 3 12 24 32 32 27 25 15 7 6 13 20 21 22
28 31 32 34 35 31 23 24 13 18 30 32 30 29 29 28 13 13 14 15 20 24
25 28 31 33 32 23 24 21 22 24 30 32 29 24 25 28 17 16 12 16 23 25
28 24 27 30 27 25 23 22 24 28 26 26 22 17 18 23 28 19 26 28 30 30
Wind_Direction
343 342 340 339 340 340 339 339 339 338 338 335 331 327 326 327 326 324 322 322 322 321
342 342 343 344 344 344 345 343 342 344 349 350 350 345 339 336 333 331 329 326 323 320
346 348 349 349 349 350 350 352 353 350 351 351 351 349 347 344 343 338 334 333 325 318
351 353 353 354 353 356 358 355 356 355 356 358 357 358 356 353 349 349 345 339 320 291
356 357 358 358 358 358 359 3 3 3 6 10 14 10 8 10 6 357 328 346 33 206
358 359 360 3 4 4 7 11 7 6 8 14 16 24 21 20 16 7 286 275 208 205
359 360 2 4 4 5 7 16 14 19 21 14 35 33 34 34 5 317 307 293 265 205
3 3 4 7 11 10 14 19 21 16 36 36 43 18 338 25 16 337 327 321 314 288
7 8 7 6 6 5 22 28 14 6 46 337 48 341 350 0 48 21 352 345 338 326
11 12 6 3 2 356 342 42 46 333 30 4 345 344 348 33 65 20 353 349 349 357
15 12 8 358 12 340 322 310 312 59 32 28 356 345 343 338 49 51 346 350 352 353
20 12 1 349 344 338 317 319 298 55 6 359 349 342 344 342 324 325 331 332 344 355
23 17 358 3 344 324 325 320 328 42 12 4 345 330 334 340 323 321 315 327 342 344
20 27 13 359 342 336 331 327 336 350 338 336 329 318 321 333 343 42 4 348 1 357